Location: Colorado Springs
(38.8340°N, 104.8210°W)
Time: 06:33:17
(UTC-06:00)

N. Korean satellite - Pass Details

Date: 15 October 2017
Orbit: 459 x 517 km, 97.2° (Epoch: 18 October)

Event Time Altitude Azimuth Distance (km) Brightness Sun altitude
Rises 20:07:59 0° 211° (SSW) 2,544 10.6 -21.7°
Reaches altitude 10° 20:11:11 10° 243° (WSW) 1,655 10.0 -22.3°
Maximum altitude 20:12:38 12° 268° (W) 1,526 10.1 -22.6°
Drops below altitude 10° 20:14:05 10° 292° (WNW) 1,648 10.3 -22.9°
Sets 20:17:16 0° 324° (NW) 2,519 10.8 -23.5°
